Location: Choratice
(49.8402°N, 14.8743°E)
Time: 01:22:26
(UTC+00:00)

Daily predictions for brighter satellites

Satellite Brightness Start Highest point End
(mag) Time Altitude Azimuth Time Altitude Azimuth Time Altitude Azimuth
Cosmos 1674 4.2 00:00:44 10° N 00:04:02 29° ENE 00:05:00 25° E
Cosmos 1536 Rocket 3.6 00:06:13 10° N 00:10:34 69° E 00:11:19 56° SE
Cosmos 2219 Rocket 2.6 00:05:23 10° NW 00:10:42 41° WSW 00:11:13 40° WSW
Cosmos 1464 Rocket 4.2 00:08:47 41° SW 00:10:52 61° WNW 00:17:03 10° N
Cosmos 1437 3.8 00:09:22 10° N 00:11:26 40° N 00:11:26 40° N
Cosmos 1782 Rocket 4.2 00:12:54 39° W 00:13:20 40° WNW 00:17:28 10° N
Lacrosse 4 Rocket 2.2 00:13:01 38° W 00:13:56 45° NW 00:17:59 10° NNE
IRAS Rocket 4.4 00:14:44 32° SSE 00:17:24 73° ENE 00:23:00 10° NNW
FALCON 9 DEB 4.0 00:15:49 25° WNW 00:17:34 49° N 00:20:59 10° E
Cosmos 1354 Rocket 4.2 00:16:38 46° SW 00:18:08 67° WNW 00:23:29 10° NNE
Cosmos 968 Rocket 4.3 00:19:13 30° W 00:20:58 40° WNW 00:25:49 10° NNE
SL-4 R/B 2.0 00:22:19 55° ENE 00:22:19 55° ENE 00:25:06 10° E
SL-16 R/B 3.3 00:17:00 10° NNW 00:22:28 43° NE 00:27:52 10° ESE
COSMOS 2428 3.4 00:23:37 10° NW 00:28:44 34° WSW 00:29:12 34° WSW
SL-16 R/B 2.5 00:28:37 29° SSE 00:32:02 88° ENE 00:38:20 10° NNW
Nadezhda 4 Rocket 4.4 00:27:17 10° NNW 00:33:19 49° W 00:35:18 37° SW
Cosmos 2360 Rocket 4.4 00:32:42 10° W 00:33:24 10° W 00:33:24 10° W
NPP 4.2 00:29:19 10° NNE 00:34:35 51° E 00:36:53 31° SSE
BREEZE-M TANK 3.3 00:36:08 33° SE 00:36:08 33° SE 00:39:17 10° ESE
CZ-2D R/B 2.5 00:30:23 10° NNE 00:35:50 61° ESE 00:38:05 35° SSE
CENTAUR R/B 4.3 00:30:09 10° W 00:36:07 33° NNW 00:43:01 10° NE
USA 267 3.7 00:30:52 10° E 00:37:19 63° NNE 00:43:46 10° WNW
Cosmos 2034 Rocket 4.3 00:35:41 35° SW 00:38:03 54° WNW 00:44:15 10° N
Cosmos 1607 4.4 00:32:09 10° NW 00:38:34 65° NE 00:45:00 10° SE
GEOS 3 Rocket 3.7 00:35:06 10° NE 00:40:33 84° NW 00:42:46 37° SW
Okean 2 Rocket 3.4 00:41:46 44° WSW 00:42:36 51° WNW 00:47:00 10° N
Cosmos 1428 Rocket 4.4 00:36:30 10° N 00:42:47 87° W 00:46:04 31° S
KORONAS-FOTON 3.8 00:39:14 10° N 00:43:02 75° E 00:43:44 55° SE
AQUA 4.5 00:39:01 10° NNE 00:43:39 48° E 00:45:34 30° SSE
ADEOS II 3.4 00:39:34 10° NNE 00:44:15 31° E 00:47:27 17° SSE
Cosmos 1092 Rocket 4.1 00:39:21 10° NNW 00:45:31 62° W 00:48:01 36° SSW
Cosmos 2297 Rocket 2.3 00:45:36 37° S 00:47:47 66° ESE 00:53:24 10° NNE
Cosmos 2219 3.2 00:45:50 39° SSW 00:47:58 76° ESE 00:53:36 10° NNE
Helios 1B rocket 3.7 00:44:28 10° N 00:47:59 28° WNW 00:48:49 26° W
Cosmos 1980 3.8 00:42:27 10° NW 00:47:59 54° WSW 00:49:52 38° SSW
Cosmos 2333 Rocket 3.6 00:44:00 10° NW 00:48:09 21° W 00:48:11 21° W
Uosat 12 SS-18 rocket 4.5 00:48:34 42° S 00:49:58 59° SE 00:54:24 10° NE
Cosmos 1777 Rocket 4.0 00:49:00 42° SSW 00:50:53 86° WNW 00:56:14 10° NNE
Meteor 1-29 4.1 00:48:58 10° N 00:52:03 30° WNW 00:52:12 30° WNW
Cosmos 1766 3.9 00:51:10 36° SE 00:52:17 49° E 00:56:04 10° NNE
UNK 3.7 00:52:22 44° SSW 00:53:44 67° WSW 00:58:25 10° NNW
Cosmos 44 Rocket 4.3 00:51:15 10° WNW 00:55:08 29° WSW 00:55:08 29° WSW
Cosmos 2237 Rocket 2.4 00:52:34 10° NW 00:58:01 49° WSW 00:59:51 36° SSW
Cosmos 1300 Rocket 4.3 00:57:53 33° W 00:58:45 37° WNW 01:02:48 10° N
NOSS 8 (A) 4.4 01:00:39 53° WNW 01:00:50 55° NW 01:03:48 10° NE
Okean 1 Rocket 2.9 01:01:02 44° S 01:02:23 89° SE 01:06:47 10° N
CZ-4B R/B 3.8 00:57:53 10° NNE 01:02:36 54° ESE 01:04:55 28° SSE
Cosmos 1626 2.8 00:58:57 10° N 01:02:36 52° ENE 01:04:26 26° SE
CZ-4C R/B 3.2 01:04:19 50° W 01:04:19 50° W 01:07:45 10° NNW
Cosmos 923 Rocket 4.0 01:00:51 10° NNW 01:06:14 85° ENE 01:10:51 14° SSE
SL-08 R/B 4.4 01:06:07 10° SE 01:10:50 47° ENE 01:15:36 10° N
Cosmos 2098 Rocket 4.2 01:08:00 10° N 01:12:31 52° ENE 01:18:10 10° SSE
Cosmos 2151 Rocket 4.5 01:12:29 30° WSW 01:13:42 35° WNW 01:17:47 10° N
Cosmos 158 Rocket 4.2 01:09:11 10° NNW 01:14:34 79° ENE 01:19:58 10° SSE
Timation 2 Rocket 4.3 01:14:34 26° WSW 01:18:01 55° NW 01:23:58 10° NNE
Meteor 2-19 Rocket 4.4 01:16:56 10° N 01:23:09 90° WSW 01:28:27 15° S
Cosmos 1805 3.4 01:24:26 39° SW 01:25:36 58° WNW 01:29:28 10° N
Meteor 1-15 Rocket 4.4 01:22:53 29° SW 01:25:44 59° WNW 01:31:18 10° N
SL-14 R/B 3.2 01:22:18 10° N 01:26:17 90° NE 01:28:23 26° S
SJ 16-02 1.5 01:25:10 29° S 01:27:21 66° ESE 01:31:45 10° NNE
DNEPR-1 R/B 4.1 01:21:52 10° NW 01:27:31 51° WSW 01:31:05 17° S
ERBS 2.2 01:24:58 10° WNW 01:28:12 53° SW 01:31:24 10° SE
Resurs 1-4 Rocket 2.6 01:31:32 10° N 01:36:34 46° WNW 01:39:24 24° SW
Cosmos 2227 Rocket 2.3 01:33:34 26° SW 01:36:51 68° WNW 01:42:32 10° NNE
Cosmos 1455 Rocket 3.4 01:34:24 20° S 01:37:22 64° E 01:41:48 10° NNE
Cosmos 1674 3.9 01:36:25 10° NW 01:39:26 24° W 01:39:47 23° W
Cosmos 1758 4.2 01:37:38 15° SSE 01:40:46 46° E 01:44:39 10° NNE
Cosmos 2180 Rocket 4.4 01:36:43 22° SSW 01:40:54 76° W 01:47:04 10° N
Cosmos 1892 Rocket 3.6 01:38:40 10° NNW 01:43:08 67° W 01:46:08 20° S
Cosmos 1733 3.5 01:42:54 31° SW 01:44:25 50° WNW 01:48:10 10° N
USA 215 3.3 01:40:07 10° ENE 01:46:41 73° SE 01:51:29 20° SW
Cosmos 2279 Rocket 4.2 01:44:46 22° SW 01:48:42 55° WNW 01:54:48 10° N
ATLAS 3B R/B 4.3 01:43:40 10° WNW 01:49:18 28° NNW 01:55:03 10° NE
Cosmos 1461 3.6 01:47:03 22° S 01:49:39 51° ESE 01:54:05 10° NE
COBE Rocket 4.2 01:47:33 23° SSW 01:50:01 42° W 01:54:27 10° NNW
Lacrosse 4 Rocket 4.0 01:52:04 10° NW 01:53:40 12° NNW 01:55:16 10° N
FALCON 9 DEB 3.0 01:51:17 10° WNW 01:54:47 78° SSW 01:58:15 10° ESE
Cosmos 2082 3.7 01:53:29 21° SW 01:57:22 78° WNW 02:03:02 10° NNE
Cosmos 1340 Rocket 3.0 01:54:19 16° S 01:57:22 69° E 02:01:21 10° NNE
Cosmos 2112 Rocket 4.1 01:55:18 10° NNW 02:00:24 54° WSW 02:05:27 10° S
SL-4 R/B 2.0 01:58:02 11° W 02:01:06 38° SSW 02:04:17 10° SE
ERS-2 3.8 01:59:15 10° SE 02:02:36 36° ENE 02:05:59 10° N
Cosmos 1953 3.5 02:00:00 10° SSE 02:03:47 42° E 02:07:37 10° NNE
Meteor 1-24 Rocket 4.1 01:59:51 10° NNW 02:04:59 41° W 02:08:55 16° SSW
CBERS-1 4.3 02:00:29 10° N 02:05:28 53° WNW 02:09:09 18° SW
SL-16 R/B 2.7 02:01:18 10° NW 02:06:33 39° WSW 02:11:45 10° S
Cosmos 1726 2.9 02:04:18 10° S 02:07:52 49° E 02:11:26 10° NNE
Cosmos 1937 Rocket 3.7 02:06:56 13° SSW 02:11:37 74° ESE 02:16:57 10° NNE
ARIANE 5 R/B 2.6 02:07:46 10° NNE 02:13:02 89° WNW 02:18:02 11° SSW
H-2A R/B 2.4 02:10:25 10° SSE 02:14:29 64° ENE 02:18:33 10° N
CZ-2D R/B 3.5 02:11:03 10° N 02:15:30 26° WNW 02:19:24 12° WSW
IDEFIX/ARIANE 42P 2.9 02:10:44 10° NNE 02:15:56 68° ESE 02:21:07 10° S
Cosmos 1898 Rocket 3.5 02:11:42 16° SSW 02:15:58 79° WNW 02:21:14 10° NNE
SL-16 R/B 4.0 02:13:43 15° WSW 02:16:27 19° W 02:20:44 10° NW
Cosmos 1680 Rocket 4.2 02:13:21 10° NW 02:18:03 34° WSW 02:22:41 10° SSW
USA 267 3.3 02:13:55 10° SE 02:20:23 62° SW 02:26:53 10° WNW
NOSS 3-1 (C) 3.5 02:17:24 14° SSW 02:22:08 74° SE 02:28:36 10° NE
Cosmos 1544 Rocket 3.7 02:20:01 13° SSW 02:23:55 63° WNW 02:28:22 10° N
ADEOS II 2.7 02:19:07 10° N 02:24:05 44° WNW 02:28:23 13° SW
CZ-4C R/B 2.9 02:23:56 10° SSE 02:27:09 81° ENE 02:30:28 10° NNW
Cosmos 990 Rocket 4.2 02:23:20 14° SW 02:27:43 60° WNW 02:32:51 10° NNE
IRS-1D 4.4 02:23:20 10° N 02:27:51 34° WNW 02:31:54 13° SW
Timation 1 Rocket 4.5 02:22:56 11° SSW 02:28:42 78° ESE 02:34:41 10° NNE
Cosmos 2263 Rocket 2.8 02:24:42 10° S 02:30:06 54° ESE 02:35:32 10° NE
CZ-4B R/B 4.0 02:28:07 10° ESE 02:30:49 24° ENE 02:33:29 10° NNE
Cosmos 2297 Rocket 3.5 02:27:26 10° WSW 02:32:18 29° NW 02:37:11 10° NNE
Cosmos 1703 3.9 02:29:51 10° N 02:33:49 59° ENE 02:37:44 10° SSE
Meteor 2-10 4.2 02:30:10 10° SSW 02:35:38 86° WNW 02:41:19 10° NNE
Cosmos 1626 4.1 02:35:31 10° NW 02:37:25 14° W 02:38:56 11° WSW
NOSS 2-3 (D) 4.3 02:33:46 10° SSW 02:37:55 51° SE 02:42:47 10° NE
Meteor 1-28 Rocket 4.3 02:36:22 11° SSW 02:39:27 26° W 02:42:42 10° NW
Cosmos 1602 Rocket 3.6 02:36:45 10° NNW 02:41:05 62° W 02:45:22 10° S
CZ-2C R/B 3.6 02:39:49 10° NNE 02:44:08 39° E 02:48:26 10° SSE
Cosmos 1470 3.8 02:41:43 11° SW 02:44:58 30° WNW 02:48:32 10° N
Cosmos 1603 3.7 02:40:35 10° NNW 02:46:17 64° WSW 02:51:54 10° SSE
Meteor 2-21 Rocket 4.4 02:41:09 10° NNW 02:47:10 68° W 02:53:10 10° S
SL-08 R/B 4.4 02:44:40 10° SSW 02:48:50 27° W 02:53:03 10° NW
Meteor 2-16 Rocket 4.5 02:44:25 10° NNW 02:50:35 76° W 02:56:43 10° S
USA 229 DEB 3.7 02:48:50 10° SW 02:55:24 85° NW 03:02:25 10° NE
USA 229 3.7 02:48:56 10° SW 02:55:29 85° NW 03:02:28 10° NE
Cosmos 2298 Rocket 4.3 02:59:23 10° SSW 03:04:41 74° ESE 03:10:01 10° NNE
NOSS 2-3 (C) 3.8 03:01:47 10° SW 03:06:06 86° SE 03:11:21 10° NE
NOSS 3-1 (A) 3.4 03:00:53 10° SW 03:06:26 87° SE 03:13:02 10° NE
